{"data":{"norad_id":58444,"intl_designator":"2023-183H","name":"STARLINK-30963","alt_names":[],"object_type":"PAYLOAD","status":"ACTIVE","operator":null,"country":"US","launch_date":"2023-11-28","launch_site_code":"AFETR","launch_vehicle":null,"mission":null,"orbit_class":"UNKNOWN","rcs_meters":null,"size_class":null,"mass_kg":null,"dimensions":null,"purposes":["comms"],"wikipedia_slug":null,"has_3d_model":false,"image_url":null,"decayed_at":null,"tle_current":{"epoch":"2026-09-20T07:44:34.387008Z","epoch_age_seconds":162328,"freshness":"FRESH","line1":"1 58444U 23183H   26263.32262022 -.00000190  00000+0  26232-5 0  9990","line2":"2 58444  43.0051  22.1965 0001412 277.3198  82.7493 15.27575317156503","mean_motion":15.27575317,"eccentricity":0.0001412,"inclination_deg":43.0051,"raan_deg":22.1965,"arg_perigee_deg":277.3198,"mean_anomaly_deg":82.7493,"bstar":2.6232e-6,"rev_number":15650,"period_min":94.267037701814,"perigee_km":482.09431720542,"apogee_km":484.03192011893,"semimajor_km":6861.2001186622,"source":"CELESTRAK","updated_at":"2026-09-21T09:00:33.876600Z"}}}